Dewpoint
25 27 29 27 26 28 24 25 23 23 24 23 23 23 24 26 28 36 38 41 42 42 42 45 47 48 48 45 43 42 39 38 41 39 37 37 36 35 36 33 32 31 32 33
26 29 27 26 25 25 25 25 26 24 24 26 26 26 27 26 28 30 31 39 43 43 45 46 47 47 48 46 43 41 40 40 40 40 35 35 34 35 35 33 32 31 31 34
26 26 25 23 24 24 25 27 26 22 24 28 29 28 27 29 30 31 32 33 39 45 46 47 47 47 45 40 40 39 38 38 36 35 34 34 33 32 31 30 30 30 32 32
25 23 16 27 26 25 25 25 23 23 26 29 32 34 33 32 32 32 33 36 39 40 40 41 39 39 39 38 36 35 35 35 33 32 32 33 34 33 34 32 31 32 32 33
23 23 25 25 21 21 24 26 29 28 30 29 33 36 35 37 37 36 35 33 33 32 32 33 34 34 31 31 30 31 31 32 33 33 33 35 37 37 34 33 31 31 31 32
28 20 16 25 25 27 29 26 31 33 34 34 33 33 35 37 34 33 32 32 33 33 33 33 32 32 31 31 31 32 34 35 35 37 38 37 34 33 33 31 30 30 29 30
22 21 24 29 27 30 18 22 33 34 34 33 34 37 35 34 34 33 33 32 32 31 29 30 31 31 30 31 32 33 34 36 38 35 34 33 32 31 29 29 28 28 29 29
28 22 19 33 29 25 30 35 36 36 38 40 37 33 33 34 33 32 32 31 31 31 30 30 29 29 29 30 32 34 35 33 32 31 30 29 29 29 28 28 28 28 25 28
30 29 34 36 34 37 38 38 40 41 42 40 34 34 34 33 33 33 32 30 27 26 27 28 28 29 29 31 29 31 31 30 30 30 30 29 28 28 28 28 26 27 27 26
32 37 39 40 41 41 39 36 36 37 36 34 33 33 32 31 31 31 30 29 29 29 29 29 29 29 29 30 30 29 29 29 29 29 28 28 29 29 29 26 26 27 27 27
37 39 39 39 38 35 35 35 34 34 34 33 33 32 31 31 31 31 31 31 31 31 30 29 28 28 28 28 29 28 28 29 28 28 28 28 29 30 29 29 28 27 26 26
32 39 37 37 37 37 35 34 34 33 33 33 32 31 32 33 33 33 33 31 30 29 28 27 28 28 29 29 29 29 28 28 28 28 27 28 28 28 30 30 30 31 31 28
39 39 38 37 36 36 35 35 34 33 33 33 33 33 33 32 31 32 31 28 28 28 28 28 28 28 30 31 31 30 29 29 29 28 28 28 28 28 27 29 31 31 31 31
38 37 36 37 35 35 34 34 34 33 33 33 33 32 31 31 30 29 29 29 29 29 30 30 30 31 31 32 31 29 29 29 28 28 28 29 29 30 30 30 29 29 31 31
38 38 37 35 33 32 33 33 32 32 31 30 30 29 28 29 30 31 31 30 29 28 29 29 28 27 26 27 24 23 25 26 26 26 26 26 27 28 28 29 31 29 30 28
36 35 34 32 31 32 32 31 30 29 29 29 29 30 30 31 29 27 27 26 26 26 28 26 24 22 26 25 24 25 25 24 24 25 23 23 23 23 24 25 28 30 29 27
33 32 33 31 32 32 31 31 31 29 28 28 28 29 28 26 25 25 26 26 23 24 24 21 21 23 25 20 17 17 17 18 19 21 22 23 21 23 24 24 25 27 29 27
35 34 33 33 33 32 31 31 30 29 28 29 27 23 22 23 25 25 24 21 19 20 20 20 22 18 16 15 17 18 19 20 20 21 21 21 20 24 25 26 28 28 27 22
34 34 34 33 32 31 29 29 29 29 28 26 24 23 22 21 22 22 21 17 16 16 17 21 19 14 12 14 17 19 17 16 15 15 16 15 17 20 20 20 23 25 26 24
33 33 32 32 31 29 28 27 28 27 24 20 18 19 20 16 13 16 19 18 15 15 18 18 14 11 10 12 13 14 12 13 10 10 11 11 13 14 15 15 16 17 17 17
31 31 30 30 30 30 27 26 24 23 20 17 17 15 14 17 15 14 16 18 16 17 16 16 14 11 10 9 11 10 7 9 6 6 7 7 8 9 10 10 11 12 13 14
30 29 29 28 27 26 26 24 24 22 19 15 12 11 13 18 15 16 12 16 16 9 15 16 14 4 8 5 10 5 7 7 5 4 4 4 4 6 5 6 6 8 10 11
30 29 28 26 25 24 23 21 20 19 16 14 13 13 17 19 17 12 12 17 18 11 16 10 5 1 -0 -4 -4 -6 -5 -4 0 -1 2 1 2 3 3 3 4 5 6 8
31 29 27 25 24 23 20 19 19 19 17 18 12 8 17 13 8 18 17 9 3 1 0 2 -0 1 -3 -10 -10 -10 -9 -11 -9 -3 -3 -5 -1 -2 -1 0 1 3 4 4
29 28 24 23 20 20 22 21 19 20 20 17 16 16 19 18 9 11 4 4 7 4 -0 -2 -1 -2 -9 -12 -12 -13 -12 -13 -14 -5 -14 -10 -5 -5 -5 -3 -2 1 1 2
26 24 22 20 19 19 20 19 17 19 17 12 11 2 7 13 11 9 2 1 3 2 -2 -8 -11 -10 -11 -6 -11 -13 -12 -9 -12 -6 -16 -14 -11 -9 -8 -6 -5 -3 -2 -0
20 19 19 18 19 19 18 16 14 13 10 3 4 2 11 6 1 3 -7 -9 -9 -8 -10 -9 -11 -9 -9 -9 -4 -7 -13 -14 -15 -12 -21 -21 -17 -15 -10 -7 -6 -4 -3 -3
Lifted_Index
1 1 1 1 0 0 -0 0 1 1 1 1 1 2 2 2 2 2 1 0 -0 -0 -1 -1 -1 -0 0 0 0 0 0 1 2 4 6 7 8 8 9 10 11 11 11 11
1 1 1 1 1 1 0 0 1 1 1 1 1 2 2 3 3 2 2 1 1 0 -0 -0 -0 -0 0 0 -0 0 1 2 4 5 6 7 8 9 10 10 11 11 11 11
2 2 2 2 2 2 1 1 1 1 1 1 2 2 3 3 3 3 3 3 2 1 0 -0 -0 -0 -0 -0 -0 0 1 3 5 6 7 8 9 9 10 10 10 11 11 10
2 2 2 2 3 3 2 2 2 2 2 2 2 3 3 3 3 3 3 3 3 2 2 1 1 0 0 0 0 1 2 4 6 7 8 8 9 9 9 10 10 11 10 10
1 2 2 3 3 3 3 3 3 3 2 3 3 3 4 4 4 4 4 4 4 4 3 2 2 1 1 1 1 2 3 5 7 8 8 9 9 9 10 10 10 10 9 9
1 1 2 3 3 3 3 3 3 3 3 3 3 4 4 4 4 3 4 4 4 4 4 3 3 2 2 2 3 4 5 7 8 8 9 9 10 11 11 11 10 9 8 8
1 1 2 2 3 3 3 3 3 3 3 3 4 4 4 4 4 4 4 4 4 4 4 4 4 4 4 4 5 6 7 8 8 9 10 11 12 12 12 11 10 9 8 7
1 2 2 3 3 3 3 3 3 3 3 4 4 5 5 5 5 4 4 4 4 4 5 6 7 7 6 6 7 8 9 9 10 11 12 12 12 12 11 10 9 8 7 6
2 2 3 3 3 3 3 3 3 4 4 4 5 5 5 5 5 5 5 5 5 6 6 7 8 8 8 9 9 10 11 11 12 12 13 13 12 12 11 9 8 7 7 6
2 3 3 3 3 3 3 3 4 4 4 4 5 5 5 5 5 5 5 6 7 7 7 8 9 10 11 12 12 12 12 13 13 13 13 12 12 11 10 8 7 7 6 6
2 2 3 3 4 4 4 4 4 4 4 5 5 5 5 5 5 6 7 8 8 8 9 10 11 12 13 13 13 13 13 13 13 12 12 11 11 10 8 7 7 6 6 6
2 2 3 3 4 4 4 4 4 4 5 5 5 6 6 6 6 7 8 9 10 11 11 12 13 14 14 13 13 13 13 12 12 11 11 10 9 8 7 6 6 6 6 6
2 2 2 3 3 4 4 4 4 5 5 6 6 7 7 7 8 9 10 12 12 13 14 14 14 14 14 13 13 13 13 12 12 11 10 9 9 8 7 6 6 6 6 5
2 2 2 2 3 3 4 4 4 5 6 7 8 8 9 9 10 11 13 14 15 15 15 15 14 14 14 14 14 14 13 13 12 12 11 10 9 8 8 7 7 6 6 6
1 2 2 2 3 3 4 4 5 5 7 8 9 10 10 11 12 13 14 15 15 15 15 14 14 14 14 15 15 14 14 14 14 13 12 11 10 10 9 8 8 7 7 6
1 2 2 2 3 4 4 5 6 7 8 10 11 12 13 13 14 15 15 15 15 14 14 14 14 15 15 16 16 16 15 15 15 14 13 12 12 11 10 10 8 7 7 7
2 2 3 3 4 4 5 7 8 9 10 11 13 14 14 15 15 15 15 14 14 14 14 15 15 16 17 17 17 16 16 16 15 14 13 13 12 11 11 10 9 8 7 7
3 3 4 5 6 6 8 9 10 11 12 13 14 15 15 15 14 14 14 14 14 14 15 16 16 17 17 18 17 17 16 15 14 14 14 13 12 11 11 10 9 8 7 6
5 5 6 7 8 9 9 10 11 12 13 14 15 14 14 14 14 14 13 13 13 14 16 17 17 18 18 18 17 16 15 15 14 14 14 14 13 12 11 10 9 8 7 7
7 7 8 9 9 10 11 12 13 14 14 14 14 14 14 14 13 13 13 13 14 16 17 18 18 18 17 17 17 16 15 15 15 15 15 14 13 13 12 11 10 9 8 8
8 9 9 10 10 11 12 13 14 14 14 14 14 14 14 13 13 13 13 14 16 17 18 18 18 17 17 16 16 15 15 15 15 15 15 14 13 13 12 12 11 11 10 10
9 9 10 10 11 12 14 14 14 14 14 14 14 13 13 12 13 13 14 15 17 18 18 17 17 16 16 16 16 16 15 15 15 15 15 14 14 13 13 13 13 13 12 12
10 10 11 12 13 13 14 14 14 14 14 13 13 12 12 13 13 14 15 16 17 17 17 16 16 16 16 16 16 16 16 15 15 15 15 15 14 14 14 14 14 14 13 12
10 11 12 13 13 13 14 14 14 13 13 13 13 13 13 14 14 15 16 17 17 16 16 16 16 16 16 16 16 16 16 16 15 15 15 15 15 15 15 15 14 14 13 12
11 12 12 13 13 13 13 13 13 12 12 12 13 14 15 15 15 16 16 16 16 16 16 16 16 16 16 16 16 16 16 16 16 16 16 16 16 15 15 15 14 13 13 12
12 12 12 12 12 12 12 12 12 12 12 12 13 14 15 15 15 15 16 16 16 16 16 16 16 17 17 17 17 17 17 17 16 17 17 16 16 15 15 15 14 14 13 13
11 12 12 11 11 11 12 12 11 12 12 13 13 14 15 15 15 15 15 16 16 16 16 16 17 17 17 17 17 17 17 17 17 17 17 17 16 16 15 15 14 14 13 13